Погода в Рыбинске

Погода в Рыбинске : погода сейчас, прогноз погоды и архив. Всё, что Вы хотите узнать о погоде в Рыбинске!

Хотите узнать прогноз погоды в Рыбинске? Тогда Вам сюда: Погода в Рыбинске

Поиск расширенной информации на нашем сайте:

Другие новости

Новости СМИ2

Главная страница сайта

Новости сайта

02.10.2013

Напоминаем, что на нашем новом сайте вы можете получить высокодетализированные прогнозы погоды по пунктам России, СНГ и мира (включающие важные для авиации метеовеличины, такие как направление и скорость ветра, видимость, явления погоды, количество и форма облачности, нижняя и верхняя граница облачности), а также ознакомиться с разнообразными материалами по авиационной метеорологии и подборкой полезных ссылок на эту тему.

Сайт Метеоцентр.Азия посвящён разработке технологий оптимизации авиаметеорологического обслуживания, включая проектирование и перспективное создание нескольких автоматизированных авиаметеорологических систем:
- система выпуска высокодетальных прогностических карт явлений погоды для нижнего воздушного пространства по России и ближнему зарубежью;
- система верификации прогнозов TAF (выпускаемых синоптиками официальных АМСГ РФ и ближнего зарубежья) и AUTOTAF (выпускаемых сайтом Метеоцентр.Азия) - выявление ошибок, онлайн-сопоставление с фактической погодой METAR, автоматическое внесение коррективов в прогнозы при резком отклонении фактической погоды от прогноза, подсчёт оправдываемости прогнозов по элементам и в целом;
- система обработки, анализа и отображения авиаметеорологической информации для применения провайдерами метеорологической информации.

Рекомендуем: Женский журнал http://clubkrasotki.ru

Погода в Рыбинске - сегодня

Время (UTC), дата Ветер
(°,м/с) 
Видим.   Явления Облачность Т
(°С)
Тd
(°С)
f(%) Тe
(°С)
Pmin
(гПа)
dP
(гПа)
Po
(мм)
O2
(г/м3)
Тmin Tmax R s Состояние
почвы
09 22.04.17 170 (Ю) 13000 м    10/10 300 м 
[Sc]
+5.4 -0.9 64 +6  995.4  -0.4  737  291           
12 22.04.17 150 (ЮВ) 13000 м    10/10 300 м 
[Sc]
+6.3 -1.1 59 +5  994  -1.4  736  290           
15 22.04.17 130 (ЮВ) 12000 м    10/10 300 м 
[Sc]
+6.9 -2.3 52 +6  990.9  -3  734  289    +7.2  0.3     
18 22.04.17 130 (ЮВ) 4{10}  10 км  слаб. ливневой дождь  10/10 300 м кучево-дожд. 
[Cb cap]
+3.3 +2.1 92 +1  988.8  -2.3  732  291           
21 22.04.17 160 (Ю) 10 км  {ливн. осадки}  10/10 300 м 
[Sc diur, vesp]
+3.4 +1.9 90 +4  987.4  -1.4  731  291           
00 23.04.17 190 (Ю) 9000 м  слаб. ливневой дождь  10/10 300 м кучево-дожд. 
[Cb cap]
+2 +0.3 88 +3  987.3  -0.1  731  292           
03 23.04.17 250 (З) 10 км  слаб. ливневой снег  10/10 300 м кучево-дожд. 
[Cb cap]
+1.4 -0.2 89 +1  987.4  0.1  731  293  +1.2      мокрая 
06 23.04.17 240 (ЮЗ) 1000 м  ливневой дождь  10/10 300 м кучево-дожд. 
[Cb cap]
+1.4 +0.2 92 +1  989.1  1.5  732  293  +0.7         
09 23.04.17 260 (З) 3{10}  10 км  слаб. дождь{ливн. осадки}  10/10 300 м 
[Frnb|Ns]
+2.4 +0.9 90 +1  992.3  3.2  735  293           
12 23.04.17 270 (З) 3{10}  12000 м  {ливн. осадки, дождь}  10/10 300 м 
[Sc]
+4 +1.6 84 +3  996.4  4.1  738  293           
15 23.04.17 260 (З) 2{12}  11000 м  слаб. ливневой дождь  10/10 300 м кучево-дожд. 
[Cb cap]
+2.9 +1.3 89 +2  1000.4  741  295    +5.4     
18 23.04.17 250 (З) 12000 м  {ливн. осадки, дождь}  4/4 300 м 
[Cu med, cong]
+2.7 +0.8 87 +3  1003.9  3.2  743  296           
21 23.04.17 тихо ()   11000 м    3/0 верхняя 
[Ci fib]
+0.8 -0.1 94 +1  1005.7  1.7  744  299           
00 24.04.17 тихо ()   11000 м    3/0 верхняя 
[Ci sp]
-0.6 -1 97 -1  1006.5  0.8  745  301           
03 24.04.17 130 (ЮВ) 5000 м  дымка  1/0 верхняя 
[Ci sp]
-1.2 -1.6 97 -1  1007.4  0.9  746  302  -1.6    0.4    замёрзшая 
06 24.04.17 040 (СВ) 11000 м    6/6 600 м 
[Cu med, cong]
+3.6 +0.6 81 +4  1008  0.8  746  297           
09 24.04.17 360 (С) 14000 м    8/8 600 м 
[Cu med, cong]
+6.3 +0.3 65 +6  1007.6  -0.3  746  294           
12 24.04.17 330 (СЗ) 13000 м  {ливн. осадки}  9/9 300 м 
[Cu med, cong]
+4.9 +0.7 74 +5  1007.9  0.3  746  295           
15 24.04.17 050 (СВ) 13000 м    9/9 300 м 
[Cu med, cong]
+5.7 +0.6 70 +7  1007.8  -0.1  746  294    +7.5  0.0     
18 24.04.17 110 (В) 11000 м  {ливн. осадки}  10/10 300 м 
[Sc]
+3.3 +0.5 82 +4  1008.7  0.8  747  297           
21 24.04.17 330 (СЗ) 13000 м    10/10 300 м 
[Sc]
+2.2 +0.6 89 +3  1009.2  0.4  747  298           
00 25.04.17 300 (СЗ) 13000 м    10/6 300 м средняя 
[Cu med, cong|As trans]
+1.9 +0.4 90 +3  1009.6  0.4  747  299           
03 25.04.17 240 (ЮЗ) 15000 м    6/4 2000 м средняя, верхняя 
[As trans|Ci fib]
+0.2 -0.8 93 +1  1011.1  1.5  749  301  +0.1        мокрая 
06 25.04.17 340 (С) 15000 м    3/0 верхняя 
[Ci fib]
+4.8 -0.5 69 +4  1012.9  1.9  750  297           
09 25.04.17 350 (С) 15000 м    6/6 300 м 
[Cu med, cong]
+7.6 -3 47 +8  1013.8  751  295           
Время (UTC), дата Ветер
(°,м/с) 
Видим.   Явления Облачность Т
(°С)
Тd
(°С)
f(%) Тe
(°С)
Pmin
(гПа)
dP
(гПа)
Po
(мм)
O2
(г/м3)
Тmin Tmax R s Состояние
почвы

Для получения пояснительной информации подведите курсор к названию столбца.

ПОГОДА в Рыбинске - архив

Всё, что Вы хотите узнать о погоде в Рыбинске - удобно и подробно!

Выберите нужную дату (начиная с 1 января 2015* года) и нажмите кнопку "Найти".
Будут отображены архивные сводки погоды по пункту Рыбинск, начиная с указанной даты.


Отображать данные в формате CSV (для использования в таблицах Excel)


Внимание! Наш архив погоды предназначен исключительно для личного некоммерческого использования в познавательных целях. Если Вам необходимы официальные справки о состоянии погоды (для производственных, юридических, коммерческих и т.п. целей), обращайтесь в органы Росгидромета.

*Примечание: данная дата относится к архиву по метеостанциям СССР (Россия, СНГ, Балтия).
Архив по метеостанциям Зарубежной Европы и Азии (кроме Китая) хранится 10 дней, по другим регионам земного шара (Китай, Африка, Америка, Австралия, Океания) - 1 день.

Рыбинск - район местоположения метеостанции


Название, широта, долгота, высота метеостанции:
Рыбинск 58.1°ш. 38.7°д. 105 м над ур. моря [Российская Федерация]

Дополнительная информация

В oтличие oт бoльшинства пoгoдных сайтoв мы публикуем пoдрoбную метеoинфoрмацию в детальнoм прoфессиoнальнoм фoрмате.

Характеристики температуры и влажнoсти вoздуха измеряются на высoте 2 м в тени вдали oт зданий и деревьев.
Скoрoсть ветра измеряется на высoте 10 м (на урoвне рoста челoвека скoрoсть ветра ниже в 1.5-2 раза). Если метеoстанция нахoдится в гoрoде или в лесу, тo скoрoсть ветра занижена на 2-4 м/с пo сравнению с oткрытым местoм. Скoрoсть ветра над акватoриями крупных рек и oзёр, а также на вершинах хoлмoв на 2-5 м/с выше, чем в oбычных услoвиях.
Атмoсфернoе давление в разных тoчках местнoсти мoжет значительнo oтличаться oт давления на метеoстанции, в зависимoсти oт услoвий рельефа (при пoдъёме на 10 м давление пoнижается примернo на 1 мм рт.ст.).